When you browse on this site, cookies collect data to enhance your experience and personalize the content and advertising you see.
Visit our Privacy Policy to learn more. By continuing to use the site, you agree to this use of cookies and data.

Meteo pe oră la Dzielna

Astăzi, 28 Septembrie, Luni

Timp Temperatura Precipitaţii Vânt Presiune Umiditate
00:00 +8°C° 0 mm 2 m/s 736 mmHg 75%
01:00 +8°C° 0 mm 3 m/s 736 mmHg 75%
02:00 +8°C° 0 mm 3 m/s 736 mmHg 74%
03:00 +8°C° 0 mm 3 m/s 736 mmHg 73%
04:00 +8°C° 0 mm 3 m/s 736 mmHg 72%
05:00 +8°C° 0 mm 3 m/s 736 mmHg 72%
06:00 +9°C° 0 mm 3 m/s 736 mmHg 71%
07:00 +9°C° 0 mm 3 m/s 737 mmHg 70%
08:00 +10°C° 0 mm 3 m/s 737 mmHg 70%
09:00 +10°C° 0 mm 3 m/s 736 mmHg 71%
10:00 +11°C° 0 mm 4 m/s 736 mmHg 71%
11:00 +11°C° 0.1 mm 3 m/s 736 mmHg 71%
12:00 +11°C° 0.1 mm 3 m/s 736 mmHg 71%
13:00 +12°C° 0.1 mm 3 m/s 736 mmHg 71%
14:00 +13°C° 0.5 mm 2 m/s 736 mmHg 76%
15:00 +12°C° 0.5 mm 2 m/s 736 mmHg 82%
16:00 +12°C° 0.5 mm 1 m/s 736 mmHg 87%
17:00 +12°C° 0.4 mm 2 m/s 736 mmHg 88%
18:00 +12°C° 0.4 mm 2 m/s 736 mmHg 88%
19:00 +12°C° 0.4 mm 2 m/s 736 mmHg 89%
20:00 +12°C° 0.3 mm 2 m/s 736 mmHg 91%
21:00 +12°C° 0.3 mm 1 m/s 736 mmHg 92%
22:00 +12°C° 0.3 mm 1 m/s 736 mmHg 94%
23:00 +12°C° 0.2 mm 1 m/s 736 mmHg 95%

Mâine, 29 Septembrie, Marţi

Timp Temperatura Precipitaţii Vânt Presiune Umiditate
00:00 +12°C° 0.2 mm 1 m/s 736 mmHg 95%
01:00 +12°C° 0.2 mm 1 m/s 736 mmHg 95%
02:00 +12°C° 0.4 mm 1 m/s 736 mmHg 96%
03:00 +12°C° 0.4 mm 1 m/s 736 mmHg 96%
04:00 +12°C° 0.4 mm 1 m/s 735 mmHg 97%
05:00 +12°C° 0.6 mm 1 m/s 735 mmHg 97%
06:00 +12°C° 0.6 mm 2 m/s 736 mmHg 97%
07:00 +12°C° 0.6 mm 2 m/s 736 mmHg 97%
08:00 +13°C° 0.7 mm 2 m/s 736 mmHg 95%
09:00 +13°C° 0.7 mm 2 m/s 736 mmHg 94%
10:00 +13°C° 0.7 mm 2 m/s 736 mmHg 92%
11:00 +13°C° 0.4 mm 2 m/s 736 mmHg 91%
12:00 +13°C° 0.4 mm 2 m/s 737 mmHg 90%
13:00 +13°C° 0.4 mm 3 m/s 737 mmHg 89%
14:00 +12°C° 1.2 mm 3 m/s 737 mmHg 91%
15:00 +12°C° 1.2 mm 3 m/s 737 mmHg 93%
16:00 +12°C° 1.2 mm 3 m/s 737 mmHg 95%
17:00 +12°C° 1.7 mm 3 m/s 737 mmHg 96%
18:00 +12°C° 1.7 mm 3 m/s 737 mmHg 96%
19:00 +12°C° 1.7 mm 3 m/s 737 mmHg 96%
20:00 +12°C° 0.7 mm 3 m/s 737 mmHg 96%
21:00 +12°C° 0.7 mm 3 m/s 737 mmHg 96%
22:00 +12°C° 0.7 mm 3 m/s 737 mmHg 96%
23:00 +12°C° 0.2 mm 3 m/s 737 mmHg 96%

Poimâine, 30 Septembrie, Miercuri

Timp Temperatura Precipitaţii Vânt Presiune Umiditate
00:00 +12°C° 0.2 mm 3 m/s 737 mmHg 96%
01:00 +12°C° 0.2 mm 3 m/s 737 mmHg 96%
02:00 +12°C° 0.2 mm 3 m/s 737 mmHg 95%
03:00 +12°C° 0.2 mm 3 m/s 736 mmHg 95%
04:00 +12°C° 0.2 mm 3 m/s 736 mmHg 95%
05:00 +12°C° 0.2 mm 3 m/s 736 mmHg 94%
06:00 +12°C° 0.2 mm 4 m/s 736 mmHg 94%
07:00 +11°C° 0.2 mm 4 m/s 736 mmHg 94%
08:00 +12°C° 0.5 mm 4 m/s 736 mmHg 93%
09:00 +12°C° 0.5 mm 4 m/s 736 mmHg 93%
10:00 +12°C° 0.5 mm 4 m/s 736 mmHg 92%
11:00 +12°C° 0 mm 4 m/s 736 mmHg 90%
12:00 +12°C° 0 mm 4 m/s 736 mmHg 88%
13:00 +13°C° 0 mm 4 m/s 736 mmHg 86%
14:00 +13°C° 0.6 mm 4 m/s 736 mmHg 87%
15:00 +12°C° 0.6 mm 4 m/s 735 mmHg 89%
16:00 +12°C° 0.6 mm 4 m/s 735 mmHg 90%
17:00 +12°C° 0.5 mm 4 m/s 735 mmHg 89%
18:00 +12°C° 0.5 mm 4 m/s 735 mmHg 89%
19:00 +13°C° 0.5 mm 3 m/s 735 mmHg 88%
20:00 +13°C° 0.2 mm 3 m/s 735 mmHg 89%
21:00 +13°C° 0.2 mm 3 m/s 735 mmHg 90%
22:00 +14°C° 0.2 mm 2 m/s 735 mmHg 92%
23:00 +14°C° 0.1 mm 2 m/s 735 mmHg 92%

1 Octombrie, Joi

Timp Temperatura Precipitaţii Vânt Presiune Umiditate
00:00 +13°C° 0.1 mm 2 m/s 734 mmHg 93%
01:00 +12°C° 0.1 mm 3 m/s 734 mmHg 94%
02:00 +13°C° 0 mm 2 m/s 734 mmHg 94%
03:00 +13°C° 0 mm 2 m/s 734 mmHg 95%
04:00 +12°C° 0 mm 2 m/s 734 mmHg 95%
05:00 +12°C° 0 mm 2 m/s 733 mmHg 94%
06:00 +12°C° 0 mm 2 m/s 733 mmHg 93%
07:00 +12°C° 0 mm 2 m/s 733 mmHg 93%
08:00 +14°C° 0 mm 2 m/s 733 mmHg 86%
09:00 +15°C° 0 mm 2 m/s 733 mmHg 79%
10:00 +16°C° 0 mm 2 m/s 733 mmHg 72%
11:00 +17°C° 0 mm 2 m/s 732 mmHg 68%
12:00 +17°C° 0 mm 2 m/s 732 mmHg 63%
13:00 +18°C° 0 mm 2 m/s 732 mmHg 59%
14:00 +18°C° 0 mm 2 m/s 732 mmHg 60%
15:00 +18°C° 0 mm 2 m/s 731 mmHg 61%
16:00 +17°C° 0 mm 2 m/s 731 mmHg 62%
17:00 +16°C° 0 mm 3 m/s 731 mmHg 67%
18:00 +14°C° 0 mm 3 m/s 731 mmHg 71%
19:00 +12°C° 0 mm 3 m/s 731 mmHg 76%
20:00 +12°C° 0 mm 3 m/s 731 mmHg 80%
21:00 +12°C° 0 mm 2 m/s 731 mmHg 83%
22:00 +12°C° 0 mm 2 m/s 731 mmHg 87%
23:00 +10°C° 0 mm 2 m/s 731 mmHg 89%

2 Octombrie, Vineri

Timp Temperatura Precipitaţii Vânt Presiune Umiditate
00:00 +10°C° 0 mm 2 m/s 730 mmHg 91%
01:00 +10°C° 0 mm 2 m/s 730 mmHg 93%
02:00 +10°C° 0 mm 2 m/s 730 mmHg 94%
03:00 +10°C° 0 mm 2 m/s 730 mmHg 95%
04:00 +10°C° 0 mm 2 m/s 730 mmHg 96%
05:00 +10°C° 0 mm 2 m/s 730 mmHg 95%
06:00 +10°C° 0 mm 3 m/s 729 mmHg 94%
07:00 +10°C° 0 mm 3 m/s 729 mmHg 93%
08:00 +12°C° 0 mm 3 m/s 729 mmHg 87%
09:00 +13°C° 0 mm 3 m/s 729 mmHg 81%
10:00 +14°C° 0 mm 3 m/s 729 mmHg 74%
11:00 +16°C° 0 mm 3 m/s 729 mmHg 70%
12:00 +17°C° 0 mm 3 m/s 729 mmHg 66%
13:00 +18°C° 0 mm 2 m/s 729 mmHg 62%
14:00 +18°C° 0.1 mm 2 m/s 729 mmHg 64%
15:00 +18°C° 0.1 mm 2 m/s 729 mmHg 66%
16:00 +17°C° 0.1 mm 2 m/s 728 mmHg 68%
17:00 +16°C° 0 mm 2 m/s 728 mmHg 71%
18:00 +16°C° 0 mm 2 m/s 728 mmHg 74%
19:00 +15°C° 0 mm 2 m/s 728 mmHg 78%
20:00 +13°C° 0 mm 3 m/s 728 mmHg 79%
21:00 +13°C° 0 mm 3 m/s 728 mmHg 80%
22:00 +13°C° 0 mm 3 m/s 728 mmHg 82%
23:00 +13°C° 0 mm 3 m/s 728 mmHg 83%

3 Octombrie, Sâmbătă

Timp Temperatura Precipitaţii Vânt Presiune Umiditate
00:00 +12°C° 0 mm 3 m/s 728 mmHg 85%
01:00 +12°C° 0 mm 3 m/s 727 mmHg 86%
02:00 +13°C° 0 mm 3 m/s 727 mmHg 84%
03:00 +13°C° 0 mm 4 m/s 727 mmHg 82%
04:00 +13°C° 0 mm 4 m/s 726 mmHg 79%
05:00 +14°C° 0 mm 4 m/s 726 mmHg 78%
06:00 +14°C° 0 mm 5 m/s 726 mmHg 77%
07:00 +14°C° 0 mm 5 m/s 725 mmHg 76%
08:00 +16°C° 0 mm 5 m/s 725 mmHg 72%
09:00 +17°C° 0 mm 6 m/s 725 mmHg 67%
10:00 +20°C° 0 mm 6 m/s 725 mmHg 62%
11:00 +20°C° 0 mm 6 m/s 724 mmHg 61%
12:00 +21°C° 0 mm 5 m/s 724 mmHg 61%
13:00 +21°C° 0 mm 5 m/s 724 mmHg 60%
14:00 +21°C° 0 mm 5 m/s 724 mmHg 60%
15:00 +21°C° 0 mm 5 m/s 723 mmHg 61%
16:00 +21°C° 0 mm 5 m/s 723 mmHg 61%
17:00 +20°C° 0 mm 5 m/s 723 mmHg 62%
18:00 +19°C° 0 mm 6 m/s 723 mmHg 63%
19:00 +19°C° 0 mm 6 m/s 723 mmHg 64%
20:00 +19°C° 0 mm 6 m/s 723 mmHg 63%
21:00 +19°C° 0 mm 6 m/s 722 mmHg 63%
22:00 +19°C° 0 mm 6 m/s 722 mmHg 63%
23:00 +19°C° 0 mm 6 m/s 722 mmHg 64%
Arată mai mult